Location: Kershaw
(34.5481°N, 80.5823°W)
Time: 03:27:15
(UTC+00:00)

Explorer 7 - Pass Details

Date: 11 October 2022
Orbit: 481 x 665 km, 50.3° (Epoch: 01 December)

Event Time Altitude Azimuth Distance (km) Brightness Sun altitude
Rises 11:31:29 0° 213° (SSW) 2,880 10.2 0.5°
Reaches altitude 10° 11:33:48 10° 207° (SSW) 2,003 9.5 1.0°
Maximum altitude 11:38:15 48° 134° (SE) 849 8.4 1.9°
Drops below altitude 10° 11:42:53 10° 60° (ENE) 2,079 10.6 2.9°
Sets 11:45:19 0° 55° (NE) 3,001 11.3 3.3°
